Total_Precipitation_Accumulation
0.02 0.03 0.05 0.09 0.19 0.42 0.54 0.42 0.52 0.57 0.70 0.71 0.71 0.78 0.82 0.89 1.36 2.24 1.48 0.92 0.62 0.47 0.46 0.51 0.50 0.47 0.50 0.50 0.54 0.56 0.62 0.63 0.63 0.62 0.59 0.59 0.65 0.69 0.73 0.88 1.01 1.14 1.26 1.28 1.44 1.67 1.78 1.68 1.62
0.02 0.04 0.06 0.11 0.28 0.50 0.58 0.58 0.69 0.57 0.65 0.71 0.69 0.74 0.74 0.75 0.73 0.83 0.88 0.88 0.69 0.56 0.64 0.57 0.48 0.47 0.51 0.52 0.58 0.60 0.65 0.72 0.76 0.78 0.72 0.69 0.75 0.82 0.87 1.04 1.14 1.24 1.41 1.41 1.41 1.56 1.71 1.61 1.55
0.04 0.05 0.10 0.21 0.33 0.51 0.67 0.66 0.71 0.63 0.73 0.73 0.80 0.85 0.94 0.97 0.83 0.83 0.84 0.81 0.75 0.64 0.74 0.66 0.54 0.51 0.51 0.58 0.58 0.64 0.70 0.80 0.86 0.93 0.99 0.92 0.82 0.86 1.00 1.16 1.21 1.28 1.43 1.68 1.62 1.64 1.79 1.59 1.54
0.04 0.07 0.14 0.29 0.32 0.36 0.46 0.56 0.64 0.75 0.92 0.81 0.82 0.92 0.98 0.96 0.93 0.95 0.98 0.87 0.70 0.67 0.70 0.65 0.62 0.60 0.59 0.62 0.65 0.75 0.84 0.89 0.92 1.02 1.10 1.15 1.03 1.00 1.19 1.32 1.30 1.37 1.47 1.68 1.93 1.86 1.97 1.85 1.63
0.05 0.13 0.22 0.36 0.34 0.37 0.47 0.53 0.65 0.87 0.92 0.83 0.83 1.10 1.32 1.28 1.06 1.02 1.00 0.89 0.75 0.72 0.73 0.82 0.85 0.88 0.87 0.82 0.82 0.89 0.95 1.01 1.05 1.06 1.12 1.24 1.20 1.19 1.49 1.51 1.45 1.51 1.58 1.71 1.84 1.83 2.00 1.91 1.72
0.09 0.16 0.31 0.44 0.39 0.37 0.44 0.59 0.72 0.85 0.98 0.93 0.95 1.29 1.82 1.80 1.54 1.35 1.15 1.09 0.98 0.85 0.92 1.07 1.21 1.28 1.18 1.09 1.03 1.05 1.03 1.04 1.10 1.22 1.22 1.26 1.33 1.48 1.70 1.57 1.54 1.69 1.78 1.82 1.89 1.91 1.95 1.97 1.91
0.10 0.17 0.28 0.41 0.43 0.49 0.44 0.50 0.75 0.96 1.14 1.25 1.11 1.36 1.83 1.96 1.75 1.54 1.61 1.52 1.33 1.24 1.32 1.29 1.23 1.23 1.25 1.22 1.17 1.22 1.20 1.17 1.19 1.34 1.42 1.34 1.39 1.62 1.82 1.73 1.69 1.72 1.74 1.78 1.91 2.14 2.07 1.94 1.95
0.06 0.12 0.24 0.36 0.44 0.51 0.50 0.58 0.79 1.09 1.29 1.30 1.06 1.41 1.94 1.94 1.74 1.83 2.03 1.99 1.99 2.09 2.32 1.81 1.44 1.30 1.19 1.20 1.29 1.38 1.53 1.46 1.37 1.42 1.57 1.58 1.60 1.73 1.89 1.84 1.83 1.80 1.85 1.87 2.06 2.30 2.31 2.19 2.07
0.06 0.11 0.21 0.34 0.43 0.49 0.52 0.64 0.71 0.76 1.03 1.02 0.92 1.13 1.68 1.70 1.63 1.94 2.40 2.68 2.61 2.80 3.01 2.29 1.81 1.59 1.47 1.44 1.48 1.59 1.77 1.87 1.72 1.65 1.73 1.87 1.98 2.21 2.25 2.07 2.13 2.05 2.14 2.16 2.26 2.43 2.45 2.48 2.46
0.08 0.16 0.23 0.25 0.34 0.45 0.54 0.59 0.75 0.83 1.05 1.08 0.94 1.00 1.23 1.69 1.90 2.20 2.55 3.18 3.19 2.85 2.67 2.42 2.23 1.93 1.76 1.69 1.94 2.07 1.99 2.05 1.91 2.07 2.00 2.19 2.68 2.86 2.53 2.54 2.49 2.39 2.46 2.60 2.68 2.69 2.65 2.50 2.49
0.09 0.22 0.21 0.25 0.34 0.52 0.63 0.68 0.86 1.13 1.29 1.29 1.24 1.35 1.66 1.99 2.16 2.46 2.76 3.24 3.47 3.33 2.84 2.58 2.37 2.29 2.16 2.24 2.47 2.58 2.67 2.71 2.52 2.64 2.63 2.72 2.83 2.80 2.81 2.81 2.75 2.78 2.78 3.03 3.18 3.00 2.72 2.54 2.57
0.10 0.15 0.17 0.29 0.35 0.44 0.63 0.71 0.83 1.11 1.41 1.45 1.48 1.65 2.07 2.31 2.52 2.86 3.08 3.39 3.44 3.52 3.39 2.86 2.73 2.82 3.03 3.06 3.00 2.96 2.95 3.03 2.97 3.02 2.87 3.00 3.10 3.10 3.00 3.04 2.99 3.07 3.00 3.24 3.29 3.26 3.14 2.92 2.75
0.12 0.20 0.20 0.27 0.34 0.45 0.52 0.69 0.80 1.03 1.07 1.25 1.52 1.86 2.09 2.04 2.49 3.00 3.10 3.41 3.51 3.58 3.49 3.20 3.38 3.47 3.56 3.60 3.59 3.33 3.24 3.46 3.48 3.45 3.35 3.39 3.33 3.18 3.17 3.15 3.17 3.07 3.21 3.36 3.43 3.32 3.22 3.11 2.95
0.14 0.14 0.18 0.25 0.29 0.39 0.46 0.62 0.80 1.05 1.17 1.33 1.52 1.68 1.83 2.07 2.58 3.00 3.23 3.61 3.53 3.55 3.79 3.76 3.86 3.75 3.68 3.75 3.95 3.99 3.66 3.80 4.03 4.12 3.97 3.79 3.69 3.57 3.57 3.66 3.61 3.37 3.39 3.53 3.68 3.59 3.47 3.22 3.07
0.16 0.15 0.21 0.27 0.27 0.30 0.41 0.69 0.82 0.99 1.13 1.22 1.35 1.41 1.57 2.07 2.48 3.03 3.38 3.74 3.73 3.77 3.85 3.89 3.78 3.98 4.13 4.13 4.12 4.18 4.09 4.06 4.22 4.44 4.46 4.10 3.84 3.92 3.96 4.16 4.13 3.84 3.80 3.90 4.00 4.02 3.87 3.44 3.16
0.18 0.21 0.33 0.35 0.33 0.34 0.47 0.90 1.08 1.03 1.02 1.15 1.21 1.26 1.49 2.05 2.53 2.89 3.23 3.57 3.62 3.78 4.12 4.07 3.67 4.11 4.35 4.29 4.26 4.06 4.14 4.40 4.59 4.65 4.78 4.47 4.11 4.01 4.21 4.18 4.02 4.00 4.14 4.37 4.53 4.44 4.35 4.11 3.87
0.22 0.28 0.39 0.44 0.40 0.42 0.54 0.92 1.23 1.15 1.06 1.10 1.09 1.15 1.37 1.72 2.28 2.68 3.07 3.46 3.72 3.97 4.45 4.28 4.03 4.21 4.36 4.42 4.50 4.27 4.39 4.72 4.84 5.00 5.03 4.60 4.19 4.10 4.39 4.50 4.50 4.41 4.49 4.61 4.40 4.56 4.47 4.60 4.43
0.27 0.34 0.47 0.53 0.50 0.48 0.63 0.95 1.23 1.33 1.28 1.23 1.20 1.33 1.53 1.60 1.86 2.20 2.73 3.31 3.70 4.27 5.01 4.63 4.24 4.22 4.56 4.59 4.45 4.45 4.59 4.90 5.20 5.28 5.10 4.79 4.62 4.42 4.68 4.69 4.75 4.82 4.97 4.89 4.82 4.87 4.67 4.53 4.45
0.25 0.35 0.46 0.58 0.54 0.57 0.72 1.04 1.28 1.48 1.45 1.29 1.37 1.61 1.68 1.64 1.81 2.04 2.57 3.27 3.67 4.20 4.71 4.70 4.51 4.59 4.72 4.74 4.52 4.67 4.87 5.17 5.48 5.43 5.33 5.21 5.08 4.99 5.13 5.20 5.17 5.01 5.01 4.94 4.85 4.83 4.76 4.44 4.23
0.22 0.32 0.44 0.58 0.56 0.64 0.77 1.09 1.45 1.60 1.63 1.56 1.58 1.81 1.76 1.80 2.01 2.31 2.84 3.21 3.59 3.94 4.20 4.51 4.67 4.72 4.53 4.90 5.18 5.47 5.82 5.88 6.17 6.42 6.44 6.22 5.92 5.72 5.58 5.63 5.31 5.03 4.97 4.89 4.77 4.67 4.53 4.15 4.01
0.19 0.25 0.39 0.49 0.53 0.59 0.79 1.33 1.55 1.72 1.69 1.73 1.84 2.09 2.07 2.08 2.30 2.67 3.02 3.18 3.41 3.75 4.11 4.45 4.81 4.95 4.90 5.40 5.93 6.37 6.76 6.68 6.73 6.67 6.64 6.58 6.14 5.81 5.61 5.39 5.25 5.10 4.92 4.77 4.74 4.65 4.51 4.19 3.99
0.18 0.16 0.25 0.35 0.51 0.71 0.72 1.33 1.61 1.85 1.88 1.75 1.94 2.15 2.26 2.06 2.09 2.44 2.79 3.25 3.23 3.48 3.89 4.25 4.69 5.13 5.46 5.89 6.36 6.87 7.21 7.44 7.26 6.93 6.63 6.25 5.76 5.44 5.09 4.91 5.00 4.93 4.70 4.49 4.18 4.08 4.08 4.04 3.85
0.16 0.14 0.21 0.32 0.44 0.68 0.75 1.16 1.67 1.93 2.01 1.86 1.98 2.04 2.14 2.02 1.99 2.21 2.37 2.72 3.02 3.27 3.64 4.08 4.44 4.87 5.53 6.30 6.87 7.39 7.74 7.77 7.22 6.61 6.04 5.56 5.12 4.79 4.55 4.50 4.64 4.59 4.34 4.12 3.84 3.68 3.48 3.45 3.55
0.13 0.21 0.31 0.42 0.57 0.95 0.81 1.13 1.87 2.04 2.10 2.13 2.06 1.98 2.05 2.03 2.05 2.22 2.36 2.67 2.90 3.02 3.30 3.85 4.40 4.78 5.35 6.14 6.72 7.07 7.26 7.20 6.74 6.09 5.52 5.06 4.59 4.20 3.89 3.73 3.68 3.66 3.52 3.37 3.31 3.27 3.21 3.19 3.27
0.16 0.38 0.74 0.94 1.03 1.01 0.81 1.15 1.94 2.15 2.06 2.07 2.13 2.18 2.26 2.28 2.27 2.25 2.26 2.36 2.63 2.82 3.10 3.56 4.08 4.58 4.97 5.46 5.96 6.01 6.09 5.84 5.44 5.21 4.89 4.36 3.91 3.55 3.21 3.04 2.95 2.97 2.96 2.87 2.89 2.95 2.97 2.94 3.00
0.16 0.34 0.86 1.11 1.10 1.09 1.15 1.74 2.40 2.34 2.18 2.11 2.00 2.00 2.13 2.20 2.12 2.17 2.14 2.35 2.69 2.97 3.25 3.52 3.77 4.12 4.51 4.69 4.84 4.70 4.55 4.48 4.33 4.09 3.73 3.36 3.08 2.89 2.79 2.72 2.56 2.54 2.56 2.54 2.71 2.69 2.59 2.62 2.65
0.18 0.26 0.40 0.63 0.83 1.21 1.59 2.15 2.71 2.64 2.40 2.18 2.07 2.01 2.06 1.99 1.93 2.01 2.14 2.44 2.72 2.98 3.16 3.41 3.59 3.70 3.69 3.72 3.79 3.73 3.62 3.48 3.41 3.31 3.02 2.73 2.59 2.42 2.41 2.38 2.32 2.21 2.14 2.13 2.17 2.17 2.21 2.31 2.27
0.17 0.23 0.36 0.71 1.16 1.48 1.79 2.45 3.01 3.04 2.73 2.21 2.01 1.91 1.97 2.04 2.00 2.03 2.17 2.43 2.50 2.55 2.74 2.99 3.12 3.32 3.31 3.15 3.07 3.13 3.04 2.84 2.68 2.53 2.40 2.24 2.15 2.11 2.10 2.02 1.98 1.97 1.97 1.90 1.85 1.84 1.92 2.00 2.05
0.27 0.34 0.43 0.72 0.92 1.33 2.05 2.83 2.83 3.12 2.98 2.61 2.28 2.03 2.08 2.19 2.14 2.08 2.20 2.31 2.20 2.14 2.16 2.32 2.55 2.87 2.92 2.81 2.68 2.71 2.62 2.47 2.32 2.20 2.11 2.07 1.96 1.91 1.85 1.85 1.85 1.74 1.72 1.76 1.81 1.78 1.84 1.96 1.96
0.30 0.40 0.52 0.92 1.05 1.09 1.92 3.04 2.69 2.73 2.91 2.80 2.52 2.32 2.22 2.24 2.26 2.14 2.14 2.18 2.12 2.01 1.91 2.02 2.21 2.30 2.31 2.32 2.40 2.50 2.41 2.31 2.18 2.08 2.04 2.01 1.86 1.81 1.80 1.80 1.77 1.60 1.54 1.70 1.78 1.73 1.70 1.81 1.80